Time,TemperatureF,DewpointF,PressureIn,WindDirection,WindDirectionDegrees,WindSpeedMPH,WindSpeedGustMPH,Humidity,HourlyPrecipIn,Conditions,Clouds,dailyrainin,SoftwareType,DateUTC
2013-07-25 00:01:00,78.5,71.8,29.88,WSW,247,0.0,1.0,80,0.00,,,0.00,WeatherCatV1.13B119,2013-07-25 05:01:00,
2013-07-25 00:06:00,78.4,72.1,29.89,WSW,247,0.0,0.0,81,0.00,,,0.00,WeatherCatV1.13B119,2013-07-25 05:06:00,
2013-07-25 00:11:00,78.2,71.9,29.88,WSW,247,0.0,0.0,81,0.00,,,0.00,WeatherCatV1.13B119,2013-07-25 05:11:00,
2013-07-25 00:16:00,78.0,72.0,29.89,WSW,250,0.0,0.0,82,0.00,,,0.00,WeatherCatV1.13B119,2013-07-25 05:16:00,
2013-07-25 00:21:00,78.1,71.8,29.89,WSW,249,0.0,0.0,81,0.00,,,0.00,WeatherCatV1.13B119,2013-07-25 05:21:00,
2013-07-25 00:26:00,78.1,71.8,29.89,WSW,249,0.0,0.0,81,0.00,,,0.00,WeatherCatV1.13B119,2013-07-25 05:26:00,
2013-07-25 00:31:00,78.1,71.8,29.89,WSW,250,0.0,0.0,81,0.00,,,0.00,WeatherCatV1.13B119,2013-07-25 05:31:00,
2013-07-25 00:36:00,78.0,71.7,29.89,WSW,250,0.0,0.0,81,0.00,,,0.00,WeatherCatV1.13B119,2013-07-25 05:36:00,
2013-07-25 00:41:00,77.8,71.8,29.89,WSW,250,0.0,0.0,82,0.00,,,0.00,WeatherCatV1.13B119,2013-07-25 05:41:00,
2013-07-25 00:46:00,77.9,71.9,29.89,WSW,250,0.0,0.0,82,0.00,,,0.00,WeatherCatV1.13B119,2013-07-25 05:46:00,
2013-07-25 00:51:00,78.3,72.0,29.89,WSW,250,0.0,0.0,81,0.00,,,0.00,WeatherCatV1.13B119,2013-07-25 05:51:00,
2013-07-25 00:56:00,78.7,72.4,29.89,WSW,258,0.0,0.0,81,0.00,,,0.00,WeatherCatV1.13B119,2013-07-25 05:56:00,
2013-07-25 01:01:00,79.2,72.1,29.89,SW,223,0.0,1.0,79,0.00,,,0.00,WeatherCatV1.13B119,2013-07-25 06:01:00,
2013-07-25 01:06:00,79.5,72.4,29.89,SSW,197,0.0,0.0,79,0.00,,,0.00,WeatherCatV1.13B119,2013-07-25 06:06:00,
2013-07-25 01:11:00,79.4,72.7,29.89,SSW,211,0.0,1.0,80,0.00,,,0.00,WeatherCatV1.13B119,2013-07-25 06:11:00,
2013-07-25 01:16:00,79.0,72.3,29.89,SSW,211,0.0,1.0,80,0.00,,,0.00,WeatherCatV1.13B119,2013-07-25 06:16:00,
2013-07-25 01:21:00,78.8,72.5,29.89,SSW,211,0.0,0.0,81,0.00,,,0.00,WeatherCatV1.13B119,2013-07-25 06:21:00,
2013-07-25 01:26:00,78.8,72.1,29.89,SW,230,0.0,0.0,80,0.00,,,0.00,WeatherCatV1.13B119,2013-07-25 06:26:00,
2013-07-25 01:31:00,79.0,72.3,29.90,NW,307,0.0,0.0,80,0.00,,,0.00,WeatherCatV1.13B119,2013-07-25 06:31:00,
2013-07-25 01:36:00,79.1,72.4,29.90,West,260,0.0,0.0,80,0.00,,,0.00,WeatherCatV1.13B119,2013-07-25 06:36:00,
2013-07-25 01:41:00,79.0,72.3,29.90,West,260,0.0,0.0,80,0.00,,,0.00,WeatherCatV1.13B119,2013-07-25 06:41:00,
2013-07-25 01:46:00,79.0,72.3,29.90,West,262,0.0,0.0,80,0.00,,,0.00,WeatherCatV1.13B119,2013-07-25 06:46:00,
2013-07-25 01:51:00,79.0,72.3,29.90,West,262,0.0,0.0,80,0.00,,,0.00,WeatherCatV1.13B119,2013-07-25 06:51:00,
2013-07-25 01:56:00,78.9,72.6,29.90,SSW,198,0.0,1.0,81,0.00,,,0.00,WeatherCatV1.13B119,2013-07-25 06:56:00,
2013-07-25 02:01:00,78.7,72.4,29.90,SW,228,0.0,1.0,81,0.00,,,0.00,WeatherCatV1.13B119,2013-07-25 07:01:00,
2013-07-25 02:06:00,78.6,72.3,29.90,SW,226,0.0,1.0,81,0.00,,,0.00,WeatherCatV1.13B119,2013-07-25 07:06:00,
2013-07-25 02:11:00,78.8,72.5,29.91,SW,234,0.0,0.0,81,0.00,,,0.00,WeatherCatV1.13B119,2013-07-25 07:11:00,
2013-07-25 02:16:00,78.8,72.5,29.91,SW,235,0.0,0.0,81,0.00,,,0.00,WeatherCatV1.13B119,2013-07-25 07:16:00,
2013-07-25 02:21:00,78.7,72.4,29.91,SSW,213,0.0,2.0,81,0.00,,,0.00,WeatherCatV1.13B119,2013-07-25 07:21:00,
2013-07-25 02:26:00,78.8,72.5,29.91,South,176,1.0,2.0,81,0.00,,,0.00,WeatherCatV1.13B119,2013-07-25 07:26:00,
2013-07-25 02:31:00,79.1,72.8,29.91,SSE,150,0.0,1.0,81,0.00,,,0.00,WeatherCatV1.13B119,2013-07-25 07:31:00,
2013-07-25 02:36:00,79.4,73.0,29.91,SSE,150,0.0,0.0,81,0.00,,,0.00,WeatherCatV1.13B119,2013-07-25 07:36:00,
2013-07-25 02:41:00,79.5,72.8,29.91,SSE,160,0.0,1.0,80,0.00,,,0.00,WeatherCatV1.13B119,2013-07-25 07:41:00,
2013-07-25 02:46:00,79.5,72.8,29.91,South,191,0.0,2.0,80,0.00,,,0.00,WeatherCatV1.13B119,2013-07-25 07:46:00,
2013-07-25 02:51:00,79.5,72.8,29.91,South,187,0.0,0.0,80,0.00,,,0.00,WeatherCatV1.13B119,2013-07-25 07:51:00,
2013-07-25 02:56:00,79.4,72.7,29.91,South,188,0.0,0.0,80,0.00,,,0.00,WeatherCatV1.13B119,2013-07-25 07:56:00,
2013-07-25 03:01:00,79.3,72.9,29.91,SSE,163,1.0,1.0,81,0.00,,,0.00,WeatherCatV1.13B119,2013-07-25 08:01:00,
2013-07-25 03:06:00,79.2,72.8,29.91,SSE,151,0.0,0.0,81,0.00,,,0.00,WeatherCatV1.13B119,2013-07-25 08:06:00,
2013-07-25 03:11:00,79.2,72.8,29.91,SSE,160,0.0,0.0,81,0.00,,,0.00,WeatherCatV1.13B119,2013-07-25 08:11:00,
2013-07-25 03:16:00,79.1,73.1,29.91,South,189,0.0,0.0,82,0.00,,,0.00,WeatherCatV1.13B119,2013-07-25 08:16:00,
2013-07-25 03:21:00,79.0,73.0,29.91,South,173,0.0,0.0,82,0.00,,,0.00,WeatherCatV1.13B119,2013-07-25 08:21:00,
2013-07-25 03:26:00,78.8,72.8,29.91,South,191,0.0,2.0,82,0.00,,,0.00,WeatherCatV1.13B119,2013-07-25 08:26:00,
2013-07-25 03:31:00,78.8,72.8,29.91,SSE,160,2.0,2.0,82,0.00,,,0.00,WeatherCatV1.13B119,2013-07-25 08:31:00,
2013-07-25 03:36:00,78.8,72.8,29.92,SW,218,0.0,0.0,82,0.00,,,0.00,WeatherCatV1.13B119,2013-07-25 08:36:00,
2013-07-25 03:41:00,78.6,73.0,29.91,SSW,212,0.0,0.0,83,0.00,,,0.00,WeatherCatV1.13B119,2013-07-25 08:41:00,
2013-07-25 03:46:00,78.3,72.7,29.91,SSW,212,0.0,0.0,83,0.00,,,0.00,WeatherCatV1.13B119,2013-07-25 08:46:00,
2013-07-25 03:51:00,78.0,72.8,29.91,SW,223,0.0,1.0,84,0.00,,,0.00,WeatherCatV1.13B119,2013-07-25 08:51:00,
2013-07-25 03:56:00,77.9,72.7,29.92,SSW,198,0.0,0.0,84,0.00,,,0.00,WeatherCatV1.13B119,2013-07-25 08:56:00,
2013-07-25 04:01:00,77.7,72.8,29.92,SW,214,0.0,0.0,85,0.00,,,0.00,WeatherCatV1.13B119,2013-07-25 09:01:00,
2013-07-25 04:06:00,77.5,72.6,29.92,SW,214,0.0,0.0,85,0.00,,,0.00,WeatherCatV1.13B119,2013-07-25 09:06:00,
2013-07-25 04:11:00,77.3,72.8,29.92,SW,221,0.0,0.0,86,0.00,,,0.00,WeatherCatV1.13B119,2013-07-25 09:11:00,
2013-07-25 04:16:00,77.2,72.7,29.92,SW,221,0.0,0.0,86,0.00,,,0.00,WeatherCatV1.13B119,2013-07-25 09:16:00,
2013-07-25 04:21:00,77.1,72.6,29.92,SW,221,0.0,0.0,86,0.00,,,0.00,WeatherCatV1.13B119,2013-07-25 09:21:00,
2013-07-25 04:26:00,76.8,72.6,29.92,SW,221,0.0,0.0,87,0.00,,,0.00,WeatherCatV1.13B119,2013-07-25 09:26:00,
2013-07-25 04:31:00,76.6,72.4,29.92,SW,221,0.0,0.0,87,0.00,,,0.00,WeatherCatV1.13B119,2013-07-25 09:31:00,
2013-07-25 04:36:00,76.6,72.4,29.92,WSW,251,0.0,0.0,87,0.00,,,0.00,WeatherCatV1.13B119,2013-07-25 09:36:00,
2013-07-25 04:41:00,76.6,72.4,29.92,WSW,251,0.0,0.0,87,0.00,,,0.00,WeatherCatV1.13B119,2013-07-25 09:41:00,
2013-07-25 04:46:00,76.4,72.6,29.92,WSW,251,0.0,0.0,88,0.00,,,0.00,WeatherCatV1.13B119,2013-07-25 09:46:00,
2013-07-25 04:51:00,76.2,72.4,29.92,WSW,251,0.0,0.0,88,0.00,,,0.00,WeatherCatV1.13B119,2013-07-25 09:51:00,
2013-07-25 04:56:00,76.1,72.3,29.92,WSW,251,0.0,0.0,88,0.00,,,0.00,WeatherCatV1.13B119,2013-07-25 09:56:00,
2013-07-25 05:01:00,76.1,72.3,29.92,WSW,251,0.0,0.0,88,0.00,,,0.00,WeatherCatV1.13B119,2013-07-25 10:01:00,
2013-07-25 05:06:00,75.9,72.1,29.92,WSW,251,0.0,0.0,88,0.00,,,0.00,WeatherCatV1.13B119,2013-07-25 10:06:00,
2013-07-25 05:11:00,75.7,72.2,29.92,WSW,251,0.0,0.0,89,0.00,,,0.00,WeatherCatV1.13B119,2013-07-25 10:11:00,
2013-07-25 05:16:00,75.8,72.6,29.93,WSW,251,0.0,0.0,90,0.00,,,0.00,WeatherCatV1.13B119,2013-07-25 10:16:00,
2013-07-25 05:21:00,76.0,72.5,29.93,WSW,251,0.0,0.0,89,0.00,,,0.00,WeatherCatV1.13B119,2013-07-25 10:21:00,
2013-07-25 05:26:00,75.8,72.3,29.93,WSW,251,0.0,0.0,89,0.00,,,0.00,WeatherCatV1.13B119,2013-07-25 10:26:00,
2013-07-25 05:31:00,75.7,72.2,29.93,WSW,251,0.0,0.0,89,0.00,,,0.00,WeatherCatV1.13B119,2013-07-25 10:31:00,
2013-07-25 05:36:00,75.6,72.1,29.93,WSW,251,0.0,0.0,89,0.00,,,0.00,WeatherCatV1.13B119,2013-07-25 10:36:00,
2013-07-25 05:41:00,75.5,72.0,29.93,WSW,251,0.0,0.0,89,0.00,,,0.00,WeatherCatV1.13B119,2013-07-25 10:41:00,
2013-07-25 05:46:00,75.3,71.8,29.93,WSW,251,0.0,0.0,89,0.00,,,0.00,WeatherCatV1.13B119,2013-07-25 10:46:00,
2013-07-25 05:51:00,75.2,72.1,29.93,WSW,251,0.0,0.0,90,0.00,,,0.00,WeatherCatV1.13B119,2013-07-25 10:51:00,
2013-07-25 05:56:00,75.0,71.9,29.93,WSW,251,0.0,0.0,90,0.00,,,0.00,WeatherCatV1.13B119,2013-07-25 10:56:00,
2013-07-25 06:01:00,75.0,72.2,29.94,WSW,251,0.0,0.0,91,0.00,,,0.00,WeatherCatV1.13B119,2013-07-25 11:01:00,
2013-07-25 06:06:00,75.1,72.3,29.94,WSW,251,0.0,0.0,91,0.00,,,0.00,WeatherCatV1.13B119,2013-07-25 11:06:00,
2013-07-25 06:11:00,75.1,72.3,29.94,WSW,251,0.0,0.0,91,0.00,,,0.00,WeatherCatV1.13B119,2013-07-25 11:11:00,
2013-07-25 06:16:00,75.0,72.2,29.94,WSW,251,0.0,0.0,91,0.00,,,0.00,WeatherCatV1.13B119,2013-07-25 11:16:00,
2013-07-25 06:21:00,74.9,72.1,29.94,WSW,251,0.0,0.0,91,0.00,,,0.00,WeatherCatV1.13B119,2013-07-25 11:21:00,
2013-07-25 06:26:00,74.7,71.9,29.94,WSW,251,0.0,0.0,91,0.00,,,0.00,WeatherCatV1.13B119,2013-07-25 11:26:00,
2013-07-25 06:31:00,74.5,71.7,29.94,WSW,251,0.0,0.0,91,0.00,,,0.00,WeatherCatV1.13B119,2013-07-25 11:31:00,
2013-07-25 06:36:00,74.4,71.6,29.94,WSW,251,0.0,0.0,91,0.00,,,0.00,WeatherCatV1.13B119,2013-07-25 11:36:00,
2013-07-25 06:41:00,74.4,71.9,29.94,SW,215,0.0,0.0,92,0.00,,,0.00,WeatherCatV1.13B119,2013-07-25 11:41:00,
2013-07-25 06:46:00,74.5,72.0,29.94,SW,229,0.0,0.0,92,0.00,,,0.00,WeatherCatV1.13B119,2013-07-25 11:46:00,
2013-07-25 06:51:00,74.8,72.3,29.94,SW,229,0.0,0.0,92,0.00,,,0.00,WeatherCatV1.13B119,2013-07-25 11:51:00,
2013-07-25 06:56:00,74.9,72.4,29.94,SW,229,0.0,0.0,92,0.00,,,0.00,WeatherCatV1.13B119,2013-07-25 11:56:00,
2013-07-25 07:01:00,74.9,72.4,29.94,SW,229,0.0,0.0,92,0.00,,,0.00,WeatherCatV1.13B119,2013-07-25 12:01:00,
2013-07-25 07:06:00,75.0,72.5,29.95,SW,229,0.0,0.0,92,0.00,,,0.00,WeatherCatV1.13B119,2013-07-25 12:06:00,
2013-07-25 07:11:00,75.1,72.6,29.94,SW,229,0.0,0.0,92,0.00,,,0.00,WeatherCatV1.13B119,2013-07-25 12:11:00,
2013-07-25 07:16:00,75.3,72.8,29.95,SW,219,0.0,0.0,92,0.00,,,0.00,WeatherCatV1.13B119,2013-07-25 12:16:00,
2013-07-25 07:21:00,75.5,72.7,29.95,SSW,203,0.0,0.0,91,0.00,,,0.00,WeatherCatV1.13B119,2013-07-25 12:21:00,
2013-07-25 07:26:00,75.8,73.0,29.95,SSW,204,0.0,0.0,91,0.00,,,0.00,WeatherCatV1.13B119,2013-07-25 12:26:00,
2013-07-25 07:31:00,75.9,73.1,29.95,SSW,204,0.0,0.0,91,0.00,,,0.00,WeatherCatV1.13B119,2013-07-25 12:31:00,
2013-07-25 07:36:00,76.1,72.9,29.95,SSW,200,0.0,0.0,90,0.00,,,0.00,WeatherCatV1.13B119,2013-07-25 12:36:00,
2013-07-25 07:41:00,76.4,73.2,29.95,SSW,198,0.0,0.0,90,0.00,,,0.00,WeatherCatV1.13B119,2013-07-25 12:41:00,
2013-07-25 07:46:00,76.6,73.1,29.96,South,176,0.0,0.0,89,0.00,,,0.00,WeatherCatV1.13B119,2013-07-25 12:46:00,
2013-07-25 07:51:00,76.9,73.4,29.95,South,176,0.0,0.0,89,0.00,,,0.00,WeatherCatV1.13B119,2013-07-25 12:51:00,
2013-07-25 07:56:00,77.2,73.4,29.96,South,177,0.0,0.0,88,0.00,,,0.00,WeatherCatV1.13B119,2013-07-25 12:56:00,
2013-07-25 08:01:00,77.7,73.5,29.96,SW,234,2.0,2.0,87,0.00,,,0.00,WeatherCatV1.13B119,2013-07-25 13:01:00,
2013-07-25 08:06:00,78.0,73.5,29.96,SE,136,1.0,1.0,86,0.00,,,0.00,WeatherCatV1.13B119,2013-07-25 13:06:00,
2013-07-25 08:11:00,78.4,73.5,29.96,WSW,238,0.0,0.0,85,0.00,,,0.00,WeatherCatV1.13B119,2013-07-25 13:11:00,
2013-07-25 08:16:00,78.6,73.7,29.96,SW,236,0.0,0.0,85,0.00,,,0.00,WeatherCatV1.13B119,2013-07-25 13:16:00,
2013-07-25 08:21:00,78.9,73.6,29.96,SW,219,1.0,2.0,84,0.00,,,0.00,WeatherCatV1.13B119,2013-07-25 13:21:00,
2013-07-25 08:26:00,79.2,73.6,29.96,SSW,200,0.0,0.0,83,0.00,,,0.00,WeatherCatV1.13B119,2013-07-25 13:26:00,
2013-07-25 08:31:00,79.7,74.1,29.96,SE,129,0.0,1.0,83,0.00,,,0.00,WeatherCatV1.13B119,2013-07-25 13:31:00,
2013-07-25 08:36:00,80.3,74.3,29.96,SE,131,0.0,2.0,82,0.00,,,0.00,WeatherCatV1.13B119,2013-07-25 13:36:00,
2013-07-25 08:41:00,80.5,73.7,29.96,SW,234,3.0,3.0,80,0.00,,,0.00,WeatherCatV1.13B119,2013-07-25 13:41:00,
2013-07-25 08:46:00,80.7,73.9,29.96,SSE,155,1.0,2.0,80,0.00,,,0.00,WeatherCatV1.13B119,2013-07-25 13:46:00,
2013-07-25 08:51:00,81.1,73.9,29.96,West,272,2.0,3.0,79,0.00,,,0.00,WeatherCatV1.13B119,2013-07-25 13:51:00,
2013-07-25 08:56:00,81.4,74.2,29.96,SW,229,0.0,1.0,79,0.00,,,0.00,WeatherCatV1.13B119,2013-07-25 13:56:00,
2013-07-25 09:01:00,81.7,73.4,29.96,SSW,198,3.0,3.0,76,0.00,,,0.00,WeatherCatV1.13B119,2013-07-25 14:01:00,
2013-07-25 09:06:00,81.9,74.0,29.95,SSW,212,0.0,3.0,77,0.00,,,0.00,WeatherCatV1.13B119,2013-07-25 14:06:00,
2013-07-25 09:11:00,82.4,73.7,29.95,South,189,0.0,2.0,75,0.00,,,0.00,WeatherCatV1.13B119,2013-07-25 14:11:00,
2013-07-25 09:16:00,83.1,73.9,29.95,SE,140,1.0,2.0,74,0.00,,,0.00,WeatherCatV1.13B119,2013-07-25 14:16:00,
2013-07-25 09:21:00,83.8,74.2,29.95,SSW,212,0.0,1.0,73,0.00,,,0.00,WeatherCatV1.13B119,2013-07-25 14:21:00,
2013-07-25 09:26:00,83.9,73.9,29.95,SW,217,0.0,2.0,72,0.00,,,0.00,WeatherCatV1.13B119,2013-07-25 14:26:00,
2013-07-25 09:31:00,83.9,73.5,29.95,SW,233,2.0,4.0,71,0.00,,,0.00,WeatherCatV1.13B119,2013-07-25 14:31:00,
2013-07-25 09:36:00,84.3,73.4,29.95,WSW,257,0.0,1.0,70,0.00,,,0.00,WeatherCatV1.13B119,2013-07-25 14:36:00,
2013-07-25 09:41:00,84.9,74.0,29.96,WSW,244,1.0,2.0,70,0.00,,,0.00,WeatherCatV1.13B119,2013-07-25 14:41:00,
2013-07-25 09:46:00,85.2,73.4,29.96,NNW,348,1.0,2.0,68,0.00,,,0.00,WeatherCatV1.13B119,2013-07-25 14:46:00,
2013-07-25 09:51:00,85.5,73.3,29.96,West,271,0.0,1.0,67,0.00,,,0.00,WeatherCatV1.13B119,2013-07-25 14:51:00,
2013-07-25 09:56:00,85.5,73.7,29.96,West,266,1.0,2.0,68,0.00,,,0.00,WeatherCatV1.13B119,2013-07-25 14:56:00,
2013-07-25 10:01:00,86.0,73.3,29.96,South,187,1.0,2.0,66,0.00,,,0.00,WeatherCatV1.13B119,2013-07-25 15:01:00,
2013-07-25 10:06:00,86.2,73.0,29.96,SW,214,0.0,0.0,65,0.00,,,0.00,WeatherCatV1.13B119,2013-07-25 15:06:00,
2013-07-25 10:11:00,87.0,74.2,29.96,South,174,1.0,1.0,66,0.00,,,0.00,WeatherCatV1.13B119,2013-07-25 15:11:00,
2013-07-25 10:15:00,78.3,73.4,29.96,SW,218,0.0,1.0,85,0.00,,,0.00,WeatherCatV1.13B119,2013-07-25 15:15:00,
2013-07-25 10:16:00,87.9,73.2,29.96,WNW,299,0.0,5.0,62,0.00,,,0.00,WeatherCatV1.13B119,2013-07-25 15:16:00,
2013-07-25 10:20:00,87.9,73.2,29.96,SW,235,0.0,2.0,62,0.00,,,0.00,WeatherCatV1.13B119,2013-07-25 15:20:00,
2013-07-25 10:25:00,92.0,73.5,29.89,SW,225,2.0,6.0,55,0.00,,,0.00,WeatherCatV1.13B119,2013-07-25 15:25:00,
2013-07-25 10:30:00,92.0,73.5,29.89,SW,225,2.0,6.0,55,0.00,,,0.00,WeatherCatV1.13B119,2013-07-25 15:30:00,
2013-07-25 10:35:00,92.0,73.5,29.89,SW,225,2.0,6.0,55,0.00,,,0.00,WeatherCatV1.13B119,2013-07-25 15:35:00,
2013-07-25 10:40:00,92.0,73.5,29.89,SW,225,2.0,6.0,55,0.00,,,0.00,WeatherCatV1.13B119,2013-07-25 15:40:00,
2013-07-25 10:45:00,92.0,73.5,29.89,SW,225,2.0,6.0,55,0.00,,,0.00,WeatherCatV1.13B119,2013-07-25 15:45:00,
2013-07-25 10:50:00,92.0,73.5,29.89,SW,225,2.0,6.0,55,0.00,,,0.00,WeatherCatV1.13B119,2013-07-25 15:50:00,
2013-07-25 10:55:00,92.0,73.5,29.89,SW,225,2.0,6.0,55,0.00,,,0.00,WeatherCatV1.13B119,2013-07-25 15:55:00,
2013-07-25 11:00:00,92.0,73.5,29.89,SW,225,2.0,6.0,55,0.00,,,0.00,WeatherCatV1.13B119,2013-07-25 16:00:00,
2013-07-25 11:05:00,92.0,73.5,29.89,SW,225,2.0,6.0,55,0.00,,,0.00,WeatherCatV1.13B119,2013-07-25 16:05:00,
2013-07-25 11:10:00,92.0,73.5,29.89,SW,225,2.0,6.0,55,0.00,,,0.00,WeatherCatV1.13B119,2013-07-25 16:10:00,
2013-07-25 11:15:00,92.0,73.5,29.89,SW,225,2.0,6.0,55,0.00,,,0.00,WeatherCatV1.13B119,2013-07-25 16:15:00,
2013-07-25 11:20:00,92.0,73.5,29.89,SW,225,2.0,6.0,55,0.00,,,0.00,WeatherCatV1.13B119,2013-07-25 16:20:00,
2013-07-25 11:25:00,92.0,73.5,29.89,SW,225,2.0,6.0,55,0.00,,,0.00,WeatherCatV1.13B119,2013-07-25 16:25:00,
2013-07-25 11:30:00,92.0,73.5,29.89,SW,225,2.0,6.0,55,0.00,,,0.00,WeatherCatV1.13B119,2013-07-25 16:30:00,
2013-07-25 11:35:00,92.0,73.5,29.89,SW,225,2.0,6.0,55,0.00,,,0.00,WeatherCatV1.13B119,2013-07-25 16:35:00,
2013-07-25 11:40:00,92.0,73.5,29.89,SW,225,2.0,6.0,55,0.00,,,0.00,WeatherCatV1.13B119,2013-07-25 16:40:00,
2013-07-25 11:45:00,92.0,73.5,29.89,SW,225,2.0,6.0,55,0.00,,,0.00,WeatherCatV1.13B119,2013-07-25 16:45:00,
2013-07-25 11:50:00,92.0,73.5,29.89,SW,225,2.0,6.0,55,0.00,,,0.00,WeatherCatV1.13B119,2013-07-25 16:50:00,
2013-07-25 11:55:00,92.0,73.5,29.89,SW,225,2.0,6.0,55,0.00,,,0.00,WeatherCatV1.13B119,2013-07-25 16:55:00,
2013-07-25 12:00:00,92.0,73.5,29.89,SW,225,2.0,6.0,55,0.00,,,0.00,WeatherCatV1.13B119,2013-07-25 17:00:00,
2013-07-25 12:05:00,92.0,73.5,29.89,SW,225,2.0,6.0,55,0.00,,,0.00,WeatherCatV1.13B119,2013-07-25 17:05:00,
2013-07-25 12:10:00,92.0,73.5,29.89,SW,225,2.0,6.0,55,0.00,,,0.00,WeatherCatV1.13B119,2013-07-25 17:10:00,
2013-07-25 12:24:00,92.0,73.5,29.89,SW,225,2.0,6.0,55,0.00,,,0.00,WeatherCatV1.13B119,2013-07-25 17:24:00,
2013-07-25 12:29:00,96.0,69.8,29.96,SE,144,0.0,2.0,43,0.00,,,0.00,WeatherCatV1.13B119,2013-07-25 17:29:00,
2013-07-25 12:34:00,96.1,70.6,29.96,SE,131,2.0,2.0,44,0.00,,,0.00,WeatherCatV1.13B119,2013-07-25 17:34:00,
2013-07-25 12:39:00,95.7,70.2,29.96,SSW,208,3.0,4.0,44,0.00,,,0.00,WeatherCatV1.13B119,2013-07-25 17:39:00,
2013-07-25 12:44:00,95.0,70.9,29.96,South,169,2.0,2.0,46,0.00,,,0.00,WeatherCatV1.13B119,2013-07-25 17:44:00,
2013-07-25 12:49:00,96.1,71.3,29.96,South,184,1.0,3.0,45,0.00,,,0.00,WeatherCatV1.13B119,2013-07-25 17:49:00,
2013-07-25 12:54:00,96.7,69.8,29.96,SSE,148,0.0,3.0,42,0.00,,,0.00,WeatherCatV1.13B119,2013-07-25 17:54:00,
2013-07-25 12:59:00,97.1,68.7,29.96,North,352,1.0,3.0,40,0.00,,,0.00,WeatherCatV1.13B119,2013-07-25 17:59:00,
2013-07-25 13:04:00,97.0,71.4,29.96,South,172,3.0,3.0,44,0.00,,,0.00,WeatherCatV1.13B119,2013-07-25 18:04:00,
2013-07-25 13:09:00,97.3,71.0,29.96,ESE,104,1.0,3.0,43,0.00,,,0.00,WeatherCatV1.13B119,2013-07-25 18:09:00,
2013-07-25 13:14:00,97.4,70.4,29.96,SSE,150,0.0,3.0,42,0.00,,,0.00,WeatherCatV1.13B119,2013-07-25 18:14:00,
2013-07-25 13:19:00,97.8,70.0,29.95,SW,222,2.0,2.0,41,0.00,,,0.00,WeatherCatV1.13B119,2013-07-25 18:19:00,
2013-07-25 13:24:00,98.4,72.0,29.96,South,191,1.0,3.0,43,0.00,,,0.00,WeatherCatV1.13B119,2013-07-25 18:24:00,
2013-07-25 13:29:00,98.4,70.6,29.96,SSE,158,0.0,1.0,41,0.00,,,0.00,WeatherCatV1.13B119,2013-07-25 18:29:00,
2013-07-25 13:34:00,99.1,69.0,29.95,South,177,3.0,3.0,38,0.00,,,0.00,WeatherCatV1.13B119,2013-07-25 18:34:00,
2013-07-25 13:39:00,99.6,70.9,29.95,SSE,167,0.0,2.0,40,0.00,,,0.00,WeatherCatV1.13B119,2013-07-25 18:39:00,
2013-07-25 13:44:00,99.5,70.1,29.95,SE,146,2.0,3.0,39,0.00,,,0.00,WeatherCatV1.13B119,2013-07-25 18:44:00,
2013-07-25 13:49:00,98.9,68.8,29.95,SSE,165,2.0,2.0,38,0.00,,,0.00,WeatherCatV1.13B119,2013-07-25 18:49:00,
2013-07-25 13:54:00,99.3,69.1,29.95,ESE,114,3.0,5.0,38,0.00,,,0.00,WeatherCatV1.13B119,2013-07-25 18:54:00,
2013-07-25 13:59:00,99.4,68.5,29.94,South,187,0.0,1.0,37,0.00,,,0.00,WeatherCatV1.13B119,2013-07-25 18:59:00,
2013-07-25 14:04:00,99.4,70.0,29.94,ESE,123,2.0,5.0,39,0.00,,,0.00,WeatherCatV1.13B119,2013-07-25 19:04:00,
2013-07-25 14:09:00,99.5,70.1,29.94,SW,231,0.0,2.0,39,0.00,,,0.00,WeatherCatV1.13B119,2013-07-25 19:09:00,
2013-07-25 14:14:00,99.7,70.3,29.94,South,169,4.0,4.0,39,0.00,,,0.00,WeatherCatV1.13B119,2013-07-25 19:14:00,
2013-07-25 14:19:00,99.4,68.5,29.94,South,180,2.0,4.0,37,0.00,,,0.00,WeatherCatV1.13B119,2013-07-25 19:19:00,
2013-07-25 14:24:00,99.2,68.3,29.94,SE,146,4.0,5.0,37,0.00,,,0.00,WeatherCatV1.13B119,2013-07-25 19:24:00,
2013-07-25 14:29:00,99.3,68.4,29.94,SSW,210,0.0,1.0,37,0.00,,,0.00,WeatherCatV1.13B119,2013-07-25 19:29:00,
2013-07-25 14:34:00,99.9,71.9,29.94,South,188,1.0,2.0,41,0.00,,,0.00,WeatherCatV1.13B119,2013-07-25 19:34:00,
2013-07-25 14:39:00,100.6,70.3,29.94,SSE,147,4.0,4.0,38,0.00,,,0.00,WeatherCatV1.13B119,2013-07-25 19:39:00,
2013-07-25 14:44:00,100.7,70.4,29.94,SE,132,2.0,3.0,38,0.00,,,0.00,WeatherCatV1.13B119,2013-07-25 19:44:00,
2013-07-25 14:49:00,100.7,70.4,29.94,ENE,73,0.0,3.0,38,0.00,,,0.00,WeatherCatV1.13B119,2013-07-25 19:49:00,
2013-07-25 14:54:00,100.2,70.7,29.94,South,189,1.0,3.0,39,0.00,,,0.00,WeatherCatV1.13B119,2013-07-25 19:54:00,
2013-07-25 14:59:00,100.2,69.2,29.93,SSW,192,0.0,3.0,37,0.00,,,0.00,WeatherCatV1.13B119,2013-07-25 19:59:00,
2013-07-25 15:04:00,100.0,69.8,29.94,SE,126,2.0,4.0,38,0.00,,,0.00,WeatherCatV1.13B119,2013-07-25 20:04:00,
2013-07-25 15:09:00,100.5,68.6,29.93,SSW,211,2.0,2.0,36,0.00,,,0.00,WeatherCatV1.13B119,2013-07-25 20:09:00,
2013-07-25 15:14:00,100.7,70.4,29.93,ENE,77,2.0,3.0,38,0.00,,,0.00,WeatherCatV1.13B119,2013-07-25 20:14:00,
2013-07-25 15:19:00,100.9,69.0,29.93,ESE,120,2.0,3.0,36,0.00,,,0.00,WeatherCatV1.13B119,2013-07-25 20:19:00,
2013-07-25 15:24:00,100.1,68.3,29.93,ESE,113,2.0,2.0,36,0.00,,,0.00,WeatherCatV1.13B119,2013-07-25 20:24:00,
2013-07-25 15:29:00,99.9,68.9,29.93,SE,146,1.0,2.0,37,0.00,,,0.00,WeatherCatV1.13B119,2013-07-25 20:29:00,
2013-07-25 15:34:00,100.6,68.7,29.93,East,92,1.0,2.0,36,0.00,,,0.00,WeatherCatV1.13B119,2013-07-25 20:34:00,
2013-07-25 15:39:00,100.7,68.0,29.93,ENE,78,2.0,4.0,35,0.00,,,0.00,WeatherCatV1.13B119,2013-07-25 20:39:00,
2013-07-25 15:44:00,99.6,67.8,29.92,SE,136,0.0,3.0,36,0.00,,,0.00,WeatherCatV1.13B119,2013-07-25 20:44:00,
2013-07-25 15:49:00,100.3,70.0,29.92,East,81,2.0,2.0,38,0.00,,,0.00,WeatherCatV1.13B119,2013-07-25 20:49:00,
2013-07-25 15:54:00,100.5,70.2,29.92,SSW,199,0.0,1.0,38,0.00,,,0.00,WeatherCatV1.13B119,2013-07-25 20:54:00,
2013-07-25 15:59:00,101.7,66.2,29.92,South,187,1.0,3.0,32,0.00,,,0.00,WeatherCatV1.13B119,2013-07-25 20:59:00,
2013-07-25 16:04:00,101.4,67.7,29.92,ESE,102,0.0,4.0,34,0.00,,,0.00,WeatherCatV1.13B119,2013-07-25 21:04:00,
2013-07-25 16:09:00,100.5,67.8,29.92,SSE,166,1.0,2.0,35,0.00,,,0.00,WeatherCatV1.13B119,2013-07-25 21:09:00,
2013-07-25 16:14:00,101.0,69.1,29.92,South,172,1.0,1.0,36,0.00,,,0.00,WeatherCatV1.13B119,2013-07-25 21:14:00,
2013-07-25 16:19:00,101.2,70.0,29.92,South,176,1.0,2.0,37,0.00,,,0.00,WeatherCatV1.13B119,2013-07-25 21:19:00,
2013-07-25 16:24:00,101.1,69.1,29.92,SE,134,2.0,3.0,36,0.00,,,0.00,WeatherCatV1.13B119,2013-07-25 21:24:00,
2013-07-25 16:29:00,101.4,68.6,29.92,South,171,1.0,2.0,35,0.00,,,0.00,WeatherCatV1.13B119,2013-07-25 21:29:00,
2013-07-25 16:34:00,101.4,68.6,29.92,SE,126,1.0,2.0,35,0.00,,,0.00,WeatherCatV1.13B119,2013-07-25 21:34:00,
2013-07-25 16:39:00,101.1,68.3,29.92,ESE,117,3.0,3.0,35,0.00,,,0.00,WeatherCatV1.13B119,2013-07-25 21:39:00,
2013-07-25 16:44:00,100.9,68.1,29.92,SSW,193,0.0,6.0,35,0.00,,,0.00,WeatherCatV1.13B119,2013-07-25 21:44:00,
2013-07-25 16:49:00,101.0,67.4,29.92,ESE,106,0.0,4.0,34,0.00,,,0.00,WeatherCatV1.13B119,2013-07-25 21:49:00,
2013-07-25 16:54:00,100.5,67.8,29.91,SSE,158,1.0,3.0,35,0.00,,,0.00,WeatherCatV1.13B119,2013-07-25 21:54:00,
2013-07-25 16:59:00,100.6,68.7,29.91,South,176,2.0,3.0,36,0.00,,,0.00,WeatherCatV1.13B119,2013-07-25 21:59:00,
2013-07-25 17:04:00,100.8,67.2,29.91,ESE,115,2.0,3.0,34,0.00,,,0.00,WeatherCatV1.13B119,2013-07-25 22:04:00,
2013-07-25 17:09:00,100.8,68.1,29.91,South,186,3.0,3.0,35,0.00,,,0.00,WeatherCatV1.13B119,2013-07-25 22:09:00,
2013-07-25 17:14:00,100.6,67.0,29.90,East,98,2.0,6.0,34,0.00,,,0.00,WeatherCatV1.13B119,2013-07-25 22:14:00,
2013-07-25 17:19:00,100.1,68.3,29.91,SSE,147,1.0,5.0,36,0.00,,,0.00,WeatherCatV1.13B119,2013-07-25 22:19:00,
2013-07-25 17:24:00,100.3,66.8,29.90,East,81,2.0,3.0,34,0.00,,,0.00,WeatherCatV1.13B119,2013-07-25 22:24:00,
2013-07-25 17:29:00,100.3,69.2,29.90,South,191,2.0,2.0,37,0.00,,,0.00,WeatherCatV1.13B119,2013-07-25 22:29:00,
2013-07-25 17:34:00,100.4,66.0,29.90,SSW,198,1.0,4.0,33,0.00,,,0.00,WeatherCatV1.13B119,2013-07-25 22:34:00,
2013-07-25 17:39:00,99.8,66.3,29.90,East,100,0.0,2.0,34,0.00,,,0.00,WeatherCatV1.13B119,2013-07-25 22:39:00,
2013-07-25 17:44:00,99.7,66.3,29.90,SE,131,3.0,4.0,34,0.00,,,0.00,WeatherCatV1.13B119,2013-07-25 22:44:00,
2013-07-25 17:49:00,99.5,66.1,29.90,ESE,117,0.0,3.0,34,0.00,,,0.00,WeatherCatV1.13B119,2013-07-25 22:49:00,
2013-07-25 17:54:00,99.9,67.3,29.90,ESE,117,0.0,2.0,35,0.00,,,0.00,WeatherCatV1.13B119,2013-07-25 22:54:00,
2013-07-25 17:59:00,99.1,64.0,29.90,SSE,155,3.0,3.0,32,0.00,,,0.00,WeatherCatV1.13B119,2013-07-25 22:59:00,
2013-07-25 18:04:00,97.9,65.5,29.90,SE,139,4.0,4.0,35,0.00,,,0.00,WeatherCatV1.13B119,2013-07-25 23:04:00,
2013-07-25 18:09:00,96.9,64.7,29.89,ESE,120,1.0,3.0,35,0.00,,,0.00,WeatherCatV1.13B119,2013-07-25 23:09:00,
2013-07-25 18:14:00,96.7,65.3,29.89,SSE,153,0.0,2.0,36,0.00,,,0.00,WeatherCatV1.13B119,2013-07-25 23:14:00,
2013-07-25 18:19:00,97.1,66.4,29.89,South,174,0.0,2.0,37,0.00,,,0.00,WeatherCatV1.13B119,2013-07-25 23:19:00,
2013-07-25 18:24:00,97.6,65.3,29.89,SSE,167,2.0,3.0,35,0.00,,,0.00,WeatherCatV1.13B119,2013-07-25 23:24:00,
2013-07-25 18:29:00,97.8,63.8,29.89,SE,142,1.0,4.0,33,0.00,,,0.00,WeatherCatV1.13B119,2013-07-25 23:29:00,
2013-07-25 18:34:00,98.2,66.6,29.89,ESE,118,2.0,2.0,36,0.00,,,0.00,WeatherCatV1.13B119,2013-07-25 23:34:00,
2013-07-25 18:39:00,98.5,64.4,29.89,SE,139,1.0,2.0,33,0.00,,,0.00,WeatherCatV1.13B119,2013-07-25 23:39:00,
2013-07-25 18:44:00,98.2,65.8,29.88,SW,224,1.0,3.0,35,0.00,,,0.00,WeatherCatV1.13B119,2013-07-25 23:44:00,
2013-07-25 18:49:00,97.7,63.7,29.88,South,190,1.0,4.0,33,0.00,,,0.00,WeatherCatV1.13B119,2013-07-25 23:49:00,
2013-07-25 18:54:00,97.4,65.1,29.88,SE,139,1.0,2.0,35,0.00,,,0.00,WeatherCatV1.13B119,2013-07-25 23:54:00,
2013-07-25 18:59:00,96.7,64.5,29.88,South,184,1.0,2.0,35,0.00,,,0.00,WeatherCatV1.13B119,2013-07-25 23:59:00,
2013-07-25 19:04:00,95.9,64.6,29.88,SE,130,4.0,5.0,36,0.00,,,0.00,WeatherCatV1.13B119,2013-07-26 00:04:00,
2013-07-25 19:09:00,95.3,64.1,29.88,SSE,167,3.0,4.0,36,0.00,,,0.00,WeatherCatV1.13B119,2013-07-26 00:09:00,
2013-07-25 19:14:00,95.0,64.6,29.88,SSE,158,2.0,3.0,37,0.00,,,0.00,WeatherCatV1.13B119,2013-07-26 00:14:00,
2013-07-25 19:19:00,94.7,65.1,29.88,SSE,150,3.0,3.0,38,0.00,,,0.00,WeatherCatV1.13B119,2013-07-26 00:19:00,
2013-07-25 19:24:00,94.6,65.0,29.88,South,191,0.0,3.0,38,0.00,,,0.00,WeatherCatV1.13B119,2013-07-26 00:24:00,
2013-07-25 19:29:00,94.4,64.8,29.88,ESE,123,2.0,3.0,38,0.00,,,0.00,WeatherCatV1.13B119,2013-07-26 00:29:00,
2013-07-25 19:34:00,94.1,64.6,29.88,SSE,167,1.0,2.0,38,0.00,,,0.00,WeatherCatV1.13B119,2013-07-26 00:34:00,
2013-07-25 19:39:00,93.8,65.0,29.89,South,177,0.0,1.0,39,0.00,,,0.00,WeatherCatV1.13B119,2013-07-26 00:39:00,
2013-07-25 19:44:00,93.5,65.5,29.88,South,176,0.0,1.0,40,0.00,,,0.00,WeatherCatV1.13B119,2013-07-26 00:44:00,
2013-07-25 19:49:00,93.2,66.6,29.88,SSW,210,0.0,0.0,42,0.00,,,0.00,WeatherCatV1.13B119,2013-07-26 00:49:00,
2013-07-25 19:54:00,92.7,66.2,29.88,SSW,208,0.0,0.0,42,0.00,,,0.00,WeatherCatV1.13B119,2013-07-26 00:54:00,
2013-07-25 19:59:00,92.2,65.7,29.88,SSE,155,0.0,0.0,42,0.00,,,0.00,WeatherCatV1.13B119,2013-07-26 00:59:00,
2013-07-25 20:04:00,92.1,65.7,29.88,South,169,0.0,0.0,42,0.00,,,0.00,WeatherCatV1.13B119,2013-07-26 01:04:00,
2013-07-25 20:09:00,91.8,66.1,29.88,North,3,0.0,0.0,43,0.00,,,0.00,WeatherCatV1.13B119,2013-07-26 01:09:00,
2013-07-25 20:14:00,91.1,65.4,29.88,West,266,0.0,0.0,43,0.00,,,0.00,WeatherCatV1.13B119,2013-07-26 01:14:00,
2013-07-25 20:19:00,90.4,66.1,29.88,West,266,0.0,0.0,45,0.00,,,0.00,WeatherCatV1.13B119,2013-07-26 01:19:00,
2013-07-25 20:24:00,89.5,66.6,29.88,West,266,0.0,0.0,47,0.00,,,0.00,WeatherCatV1.13B119,2013-07-26 01:24:00,
2013-07-25 20:29:00,88.7,67.6,29.88,West,266,0.0,0.0,50,0.00,,,0.00,WeatherCatV1.13B119,2013-07-26 01:29:00,
2013-07-25 20:34:00,88.0,68.1,29.89,West,266,0.0,0.0,52,0.00,,,0.00,WeatherCatV1.13B119,2013-07-26 01:34:00,
2013-07-25 20:39:00,87.4,68.1,29.89,West,266,0.0,0.0,53,0.00,,,0.00,WeatherCatV1.13B119,2013-07-26 01:39:00,
2013-07-25 20:44:00,86.6,69.0,29.89,West,266,0.0,0.0,56,0.00,,,0.00,WeatherCatV1.13B119,2013-07-26 01:44:00,
2013-07-25 20:49:00,85.6,69.1,29.89,West,266,0.0,0.0,58,0.00,,,0.00,WeatherCatV1.13B119,2013-07-26 01:49:00,
2013-07-25 20:54:00,84.9,67.4,29.89,West,266,0.0,0.0,56,0.00,,,0.00,WeatherCatV1.13B119,2013-07-26 01:54:00,
2013-07-25 20:59:00,84.8,66.8,29.89,West,266,0.0,0.0,55,0.00,,,0.00,WeatherCatV1.13B119,2013-07-26 01:59:00,
2013-07-25 21:04:00,85.0,67.0,29.88,West,266,0.0,0.0,55,0.00,,,0.00,WeatherCatV1.13B119,2013-07-26 02:04:00,
2013-07-25 21:09:00,84.8,67.3,29.89,West,266,0.0,0.0,56,0.00,,,0.00,WeatherCatV1.13B119,2013-07-26 02:09:00,
2013-07-25 21:14:00,84.5,67.0,29.89,West,266,0.0,0.0,56,0.00,,,0.00,WeatherCatV1.13B119,2013-07-26 02:14:00,
2013-07-25 21:19:00,84.9,66.4,29.89,NW,304,0.0,0.0,54,0.00,,,0.00,WeatherCatV1.13B119,2013-07-26 02:19:00,
2013-07-25 21:24:00,84.9,66.4,29.90,NW,304,0.0,0.0,54,0.00,,,0.00,WeatherCatV1.13B119,2013-07-26 02:24:00,
2013-07-25 21:29:00,84.5,67.0,29.90,West,274,0.0,0.0,56,0.00,,,0.00,WeatherCatV1.13B119,2013-07-26 02:29:00,
2013-07-25 21:34:00,84.2,66.2,29.90,West,274,0.0,0.0,55,0.00,,,0.00,WeatherCatV1.13B119,2013-07-26 02:34:00,
2013-07-25 21:39:00,83.8,66.9,29.91,West,274,0.0,0.0,57,0.00,,,0.00,WeatherCatV1.13B119,2013-07-26 02:39:00,
2013-07-25 21:44:00,83.4,67.5,29.91,West,274,0.0,0.0,59,0.00,,,0.00,WeatherCatV1.13B119,2013-07-26 02:44:00,
2013-07-25 21:49:00,83.2,67.4,29.91,West,274,0.0,0.0,59,0.00,,,0.00,WeatherCatV1.13B119,2013-07-26 02:49:00,
2013-07-25 21:57:00,83.0,68.1,29.91,West,274,0.0,0.0,61,0.00,,,0.00,WeatherCatV1.13B119,2013-07-26 02:57:00,
2013-07-25 22:02:00,82.5,67.7,29.92,West,274,0.0,0.0,61,0.00,,,0.00,WeatherCatV1.13B119,2013-07-26 03:02:00,
2013-07-25 22:07:00,82.4,67.6,29.92,West,274,0.0,0.0,61,0.00,,,0.00,WeatherCatV1.13B119,2013-07-26 03:07:00,
2013-07-25 22:12:00,82.4,68.0,29.92,West,274,0.0,0.0,62,0.00,,,0.00,WeatherCatV1.13B119,2013-07-26 03:12:00,
2013-07-25 22:17:00,82.3,68.4,29.92,West,274,0.0,0.0,63,0.00,,,0.00,WeatherCatV1.13B119,2013-07-26 03:17:00,
2013-07-25 22:23:00,81.9,69.0,29.92,West,274,0.0,0.0,65,0.00,,,0.00,WeatherCatV1.13B119,2013-07-26 03:23:00,
2013-07-25 22:27:00,81.5,69.0,29.93,West,274,0.0,0.0,66,0.00,,,0.00,WeatherCatV1.13B119,2013-07-26 03:27:00,
2013-07-25 22:32:00,81.2,68.7,29.92,West,274,0.0,0.0,66,0.00,,,0.00,WeatherCatV1.13B119,2013-07-26 03:32:00,
2013-07-25 22:38:00,81.0,68.5,29.93,West,274,0.0,0.0,66,0.00,,,0.00,WeatherCatV1.13B119,2013-07-26 03:38:00,
2013-07-25 22:43:00,81.0,69.0,29.93,West,274,0.0,0.0,67,0.00,,,0.00,WeatherCatV1.13B119,2013-07-26 03:43:00,
2013-07-25 22:48:00,80.9,69.3,29.93,West,274,0.0,0.0,68,0.00,,,0.00,WeatherCatV1.13B119,2013-07-26 03:48:00,
2013-07-25 22:53:00,81.0,69.0,29.93,West,274,0.0,0.0,67,0.00,,,0.00,WeatherCatV1.13B119,2013-07-26 03:53:00,
2013-07-25 22:58:00,81.1,69.9,29.93,West,274,0.0,0.0,69,0.00,,,0.00,WeatherCatV1.13B119,2013-07-26 03:58:00,
2013-07-25 23:01:00,81.0,69.0,29.93,West,274,0.0,0.0,67,0.00,,,0.00,WeatherCatV1.13B119,2013-07-26 04:01:00,
2013-07-25 23:06:00,80.8,69.2,29.93,West,274,0.0,0.0,68,0.00,,,0.00,WeatherCatV1.13B119,2013-07-26 04:06:00,
2013-07-25 23:11:00,80.7,69.1,29.94,West,274,0.0,0.0,68,0.00,,,0.00,WeatherCatV1.13B119,2013-07-26 04:11:00,
2013-07-25 23:16:00,81.0,68.5,29.94,West,274,0.0,0.0,66,0.00,,,0.00,WeatherCatV1.13B119,2013-07-26 04:16:00,
2013-07-25 23:21:00,81.6,68.7,29.94,ESE,113,1.0,2.0,65,0.00,,,0.00,WeatherCatV1.13B119,2013-07-26 04:21:00,
2013-07-25 23:26:00,83.2,68.8,29.94,SE,129,3.0,3.0,62,0.00,,,0.00,WeatherCatV1.13B119,2013-07-26 04:26:00,
2013-07-25 23:31:00,84.2,68.8,29.93,ESE,122,1.0,3.0,60,0.00,,,0.00,WeatherCatV1.13B119,2013-07-26 04:31:00,
2013-07-25 23:36:00,84.7,68.8,29.94,SSE,153,1.0,3.0,59,0.00,,,0.00,WeatherCatV1.13B119,2013-07-26 04:36:00,
2013-07-25 23:41:00,84.8,68.8,29.94,SE,146,1.0,2.0,59,0.00,,,0.00,WeatherCatV1.13B119,2013-07-26 04:41:00,
2013-07-25 23:46:00,84.9,68.9,29.94,South,171,0.0,1.0,59,0.00,,,0.00,WeatherCatV1.13B119,2013-07-26 04:46:00,
2013-07-25 23:51:00,85.0,69.0,29.95,South,190,0.0,3.0,59,0.00,,,0.00,WeatherCatV1.13B119,2013-07-26 04:51:00,
2013-07-25 23:56:00,84.8,69.3,29.95,South,174,0.0,1.0,60,0.00,,,0.00,WeatherCatV1.13B119,2013-07-26 04:56:00,